Location: Hradec Kralove
(50.2170°N, 15.8330°E)
Time: 08:00:04
(UTC+02:00)

ATV-4 - Visible Passes

Search period start: 17 September 2024 00:00
Search period end: 27 September 2024 00:00
Orbit: 308 x 318 km, 51.6° (Epoch: 02 November)

Date Brightness Start Highest point End Pass type
(mag) Time Alt. Az. Time Alt. Az. Time Alt. Az.
17 Sep 6.4 03:01:50 10° WNW 04:25:00 64° WSW 04:47:20 10° SSE visible
17 Sep 7.6 18:35:57 10° S 19:53:21 65° ESE 21:05:45 10° ENE visible
17 Sep 7.0 23:14:06 10° WSW 01:01:19 88° N 01:39:08 10° ESE visible
18 Sep 6.3 04:35:03 10° NW 05:39:50 46° WSW 05:59:25 10° S visible
18 Sep 7.4 19:51:19 10° SSW 21:18:48 78° SE 22:25:00 10° ENE visible
19 Sep 6.8 00:44:19 10° W 02:26:49 86° SSW 02:55:07 10° ESE visible
19 Sep 6.3 06:08:06 10° NW 06:52:45 29° W 07:10:11 10° SW visible
19 Sep 7.3 21:10:50 10° SW 22:49:33 87° SSE 23:43:56 10° ENE visible
20 Sep 6.4 02:19:37 10° WNW 03:48:28 75° SW 04:10:43 10° SE visible
20 Sep 7.6 18:04:10 10° S 19:21:26 55° ESE 20:28:45 10° NE visible
20 Sep 7.1 22:35:27 10° WSW 00:21:52 88° N 01:02:42 10° E visible
21 Sep 6.2 03:56:45 10° WNW 05:07:09 58° WSW 05:25:51 10° SSE visible
21 Sep 7.5 19:19:32 10° SSW 20:45:57 69° SE 21:50:13 10° ENE visible
22 Sep 6.9 00:06:27 10° W 01:51:21 89° NNE 02:21:13 10° ESE visible
22 Sep 6.2 05:32:49 10° NW 06:23:38 39° WSW 06:40:08 10° SSW visible
22 Sep 7.3 20:39:27 10° SSW 22:16:04 82° SE 23:11:19 10° ENE visible
23 Sep 6.4 01:44:03 10° W 03:16:55 83° SSW 03:39:28 10° SE visible
23 Sep 7.6 17:40:18 10° SSE 18:56:50 46° ESE 19:58:04 10° NE visible
23 Sep 7.1 22:04:33 10° SW 23:49:33 90° SSE 00:32:17 10° E visible
24 Sep 6.1 03:25:01 10° WNW 04:39:14 68° SW 04:57:21 10° SSE visible
24 Sep 7.5 18:55:09 10° S 20:21:06 61° ESE 21:21:47 10° ENE visible
24 Sep 6.9 23:36:15 10° WSW 01:21:58 87° N 01:53:09 10° E visible
25 Sep 6.0 05:04:44 10° NW 05:59:05 49° WSW 06:14:37 10° S visible
25 Sep 7.3 20:15:28 10° SSW 21:50:53 75° SE 22:45:00 10° ENE visible
26 Sep 6.4 01:15:37 10° W 02:50:56 88° SSW 03:13:51 10° ESE visible
26 Sep 7.6 17:24:28 10° SSE 18:38:43 39° E 19:33:33 10° NE visible
